{"data":{"norad_id":61530,"epoch":"2026-05-24T23:36:02.509632Z","epoch_age_seconds":77244,"freshness":"FRESH","line1":"1 61530U 24183X   26144.98336238  .00000798  00000+0  37487-4 0  9998","line2":"2 61530  53.1601 148.0563 0001171  91.5391 268.5744 15.31694385 91335","mean_motion":15.31694385,"eccentricity":0.0001171,"inclination_deg":53.1601,"raan_deg":148.0563,"arg_perigee_deg":91.5391,"mean_anomaly_deg":268.5744,"bstar":3.7487e-5,"rev_number":9133,"period_min":94.013532601675,"perigee_km":469.95472784343,"apogee_km":471.55873875577,"semimajor_km":6848.8937332996,"source":"CELESTRAK","updated_at":"2026-05-25T13:38:19.396570Z"}}